Home   Weather   Huelva   Past weeks

Flag for Spain Past Weather in Huelva, Spain — Yesterday and Last 2 Weeks

Now
59 °F

Passing clouds.


Feels Like: 57 °F
Forecast: 57 / 65 °F
Wind: 12 mph from East

Location: Rota Airport

Current Time: Apr 28, 2017 at 12:48:27 am

Latest Report: Apr 28, 2017 at 12:00 am


Visibility: 6 mi

Pressure: 29.80 "Hg

Humidity: 100%

Dew Point: 59 °F

Location of HuelvaLocation

Past Weather in Huelva — Graph

°F

Huelva Temperature Yesterday

Maximum temperature yesterday: 66 °F (at 2:00 pm)
Minimum temperature yesterday: 59 °F (at 6:00 am)
Average temperature yesterday: 62 °F

High & Low Weather Summary for the Past Weeks

 TemperatureHumidityPressure
High86 °F (Apr 18, 3:00 pm)100% (Apr 14, 2:00 am)30.15 "Hg (Apr 14, 2:00 am)
Low52 °F (Apr 15, 8:00 am)35% (Apr 18, 2:00 pm)29.77 "Hg (Apr 18, 5:00 pm)
Average64 °F72%29.97 "Hg
* Reported Apr 12 11:00 pm — Apr 27 11:00 pm, Huelva, Weather by CustomWeather, © 2017

Note: Actual official high and low records may vary slightly from our data, if they occured in-between our weather recording intervals... More about our weather records

Advertising

Huelva Weather History for the Previous 24 Hours

Scroll right to see more
 ConditionsComfort  
Time TempWeatherWind HumidityBarometerVisibility
11:00 pm
Thu, Apr 27
59 °FPassing clouds.5 mph94%29.80 "Hg3 mi
10:33 pm59 °FLight rain. Passing clouds.3 mph94%29.80 "Hg2 mi
10:00 pm59 °FLight rain. Passing clouds.6 mph100%29.80 "Hg5 mi
9:00 pm61 °FLight rain. Clear.3 mph94%29.80 "Hg5 mi
8:00 pm61 °FLight rain. Sunny.6 mph88%29.80 "Hg5 mi
7:00 pm63 °FLight rain. Scattered clouds.5 mph77%29.80 "HgN/A
6:00 pm61 °FScattered clouds.5 mph88%29.80 "HgN/A
5:00 pm63 °FPartly sunny.3 mph73%29.83 "Hg6 mi
4:42 pm63 °FLight rain. Broken clouds.5 mph73%29.83 "Hg4 mi
4:00 pm63 °FScattered clouds.3 mph73%29.83 "HgN/A
3:00 pm64 °FScattered clouds.6 mph64%29.83 "HgN/A
2:00 pm66 °FPassing clouds.6 mph64%29.86 "HgN/A
1:00 pm64 °FScattered clouds.5 mph68%29.86 "HgN/A
12:00 pm64 °FScattered clouds.2 mph68%29.86 "HgN/A
11:00 am63 °FPassing clouds.1 mph73%29.86 "HgN/A
10:00 am61 °FLight rain. Scattered clouds.No wind77%29.83 "HgN/A
9:00 am59 °FPassing clouds.1 mph88%29.83 "HgN/A
8:00 am59 °FScattered clouds.No wind77%29.83 "HgN/A
7:00 am59 °FLight rain. Passing clouds.No wind88%29.80 "HgN/A
6:00 am59 °FLight rain. Passing clouds.2 mph82%29.83 "HgN/A
5:00 am61 °FLight rain. Passing clouds.3 mph77%29.83 "HgN/A
4:00 am63 °FLight rain. Passing clouds.9 mph73%29.83 "HgN/A
3:00 am63 °FLight rain. Passing clouds.13 mph73%29.83 "HgN/A
2:00 am63 °FPassing clouds.13 mph77%29.83 "HgN/A
1:18 am63 °FLight rain. Passing clouds.13 mph77%29.83 "HgN/A
1:00 am63 °FPassing clouds.13 mph77%29.86 "HgN/A
12:00 am63 °FPassing clouds.14 mph77%29.86 "HgN/A
Weather by CustomWeather, © 2017

See weather overviewHow to use our weather pages